Location: Spor
(46.2167°N, 11.0500°E)
Time: 04:18:26
(UTC+00:00)

USA 229 DEB - Pass Details

Date: 07 June 2020
Orbit: 983 x 1229 km, 63.4° (Epoch: 24 June)

Event Time Altitude Azimuth Distance (km) Brightness Sun altitude
Rises 01:07:13 0° 320° (NW) 3,960 7.0 -16.4°
Reaches altitude 10° 01:09:51 10° 318° (NW) 3,032 6.3 -16.2°
Maximum altitude 01:17:06 73° 236° (SW) 1,232 3.8 -15.6°
Drops below altitude 10° 01:24:42 10° 153° (SSE) 3,158 5.9 -15.0°
Sets 01:27:29 0° 152° (SSE) 4,134 6.5 -14.7°
